Date String (YYYY-MM-DD hh:mm:ss) UTC,Instrument flags,Ambient pressure (hPa),Sample flow (lpm),Bypass flow (lpm),Sample temperature (°C),Ambient temperature (°C),ASC tube jacket temperature (°C),LED temperature (°C),Box temperature (°C),Sample RH (%),Span deviation,Mass concentration (μg/m³),Mass concentration (μg/m³),Mass concentration (μg/m³)
DateTimeUTC,F1_M11,P_M11,Q1_M11,Q2_M11,T1_M11,T2_M11,T3_M11,T4_M11,T5_M11,U1_M11,ZSPAN_M11,X0_M11,X2_M11,X1_M11
2023-03-09 10:00:00,,0822.4,4.99,0.00,22.8,23.2,00.0,31.3,24.7,16.9,-000.4,0019.90,0013.51,0013.07
2023-03-09 10:01:00,,0822.4,5.00,0.00,22.8,22.7,00.0,31.4,24.7,16.9,-000.4,0020.01,0013.59,0013.15
2023-03-09 10:02:00,,0822.4,5.00,0.00,22.8,22.3,00.0,31.4,24.6,16.9,-000.3,0020.20,0013.72,0013.30
2023-03-09 10:03:00,,0822.4,4.99,0.00,22.8,22.0,00.0,31.4,24.5,16.9,-000.2,0020.46,0013.84,0013.41
2023-03-09 10:04:00,,0822.4,4.99,0.00,22.8,21.7,00.0,31.4,24.5,16.9,-000.1,0020.59,0013.93,0013.46
2023-03-09 10:05:00,,0822.6,5.01,0.00,22.7,21.5,00.0,31.4,24.4,16.9,-000.1,0020.64,0013.95,0013.47
2023-03-09 10:06:00,,0822.6,5.00,0.00,22.7,21.4,00.0,31.4,24.4,16.9,-000.0,0020.80,0013.98,0013.47
2023-03-09 10:07:00,,0822.6,5.01,0.00,22.7,21.3,00.0,31.4,24.4,17.0,-000.0,0020.90,0014.08,0013.56
2023-03-09 10:08:00,,0822.6,4.98,0.00,22.7,21.2,00.0,31.4,24.4,17.0,-000.2,0020.92,0014.13,0013.58
2023-03-09 10:09:00,,0822.6,5.00,0.00,22.7,21.1,00.0,31.4,24.3,17.0,-000.2,0020.85,0014.10,0013.55
2023-03-09 10:10:00,,0822.5,5.00,0.00,22.6,21.0,00.0,31.4,24.3,17.0,-000.2,0020.76,0014.02,0013.47
2023-03-09 10:11:00,,0822.4,5.00,0.00,22.6,21.0,00.0,31.4,24.3,17.0,-000.3,0020.60,0013.92,0013.37
2023-03-09 10:12:00,,0822.4,5.00,0.00,22.6,20.9,00.0,31.4,24.3,17.0,-000.2,0020.60,0013.89,0013.33
2023-03-09 10:13:00,,0822.4,4.98,0.00,22.6,20.9,00.0,31.4,24.3,17.0,-000.2,0020.53,0013.82,0013.24
2023-03-09 10:14:00,,0822.4,5.00,0.00,22.6,20.8,00.0,31.4,24.2,17.0,-000.3,0020.31,0013.72,0013.13
2023-03-09 10:15:00,,0822.4,5.01,0.00,22.5,20.8,00.0,31.3,24.2,17.0,-000.4,0020.17,0013.62,0013.03
2023-03-09 10:16:00,,0822.4,4.97,0.00,22.5,20.7,00.0,31.3,24.2,17.1,-000.5,0020.03,0013.55,0012.96
2023-03-09 10:17:00,,0822.4,5.00,0.00,22.5,20.7,00.0,31.3,24.1,17.1,-000.6,0019.83,0013.48,0012.92
2023-03-09 10:18:00,,0822.4,5.01,0.00,22.5,21.0,00.0,31.3,24.2,17.1,-000.4,0019.65,0013.37,0012.82
2023-03-09 10:19:00,,0822.5,5.00,0.00,22.6,22.0,00.0,31.3,24.4,17.0,-000.3,0019.43,0013.23,0012.71
2023-03-09 10:20:00,,0822.5,5.02,0.00,22.7,23.1,00.0,31.3,24.7,16.9,-000.3,0019.36,0013.16,0012.64
2023-03-09 10:21:00,,0822.5,4.99,0.00,22.8,23.1,00.0,31.3,24.8,16.9,-000.3,0019.37,0013.19,0012.64
2023-03-09 10:22:00,,0822.4,4.99,0.00,22.8,22.7,00.0,31.4,24.7,16.8,-000.3,0019.30,0013.21,0012.66
2023-03-09 10:23:00,,0822.4,4.99,0.00,22.8,22.3,00.0,31.4,24.6,16.8,-000.2,0019.19,0013.19,0012.66
2023-03-09 10:24:00,,0822.4,4.99,0.00,22.8,22.0,00.0,31.4,24.6,16.9,-000.2,0019.12,0013.19,0012.66
2023-03-09 10:25:00,,0822.4,5.00,0.00,22.8,21.7,00.0,31.4,24.5,16.9,-000.2,0019.17,0013.22,0012.70
2023-03-09 10:26:00,,0822.4,5.00,0.00,22.8,21.5,00.0,31.4,24.4,16.9,-000.2,0019.28,0013.27,0012.75
2023-03-09 10:27:00,,0822.4,4.99,0.00,22.7,21.3,00.0,31.4,24.4,16.9,-000.2,0019.33,0013.31,0012.79
2023-03-09 10:28:00,,0822.5,5.00,0.00,22.7,21.1,00.0,31.4,24.3,16.9,-000.2,0019.38,0013.33,0012.80
2023-03-09 10:29:00,,0822.4,5.00,0.00,22.7,20.9,00.0,31.4,24.3,16.9,-000.3,0019.37,0013.34,0012.81
2023-03-09 10:30:00,,0822.4,5.00,0.00,22.6,20.8,00.0,31.4,24.2,17.0,-000.4,0019.37,0013.35,0012.79
2023-03-09 10:31:00,,0822.4,5.01,0.00,22.6,20.7,00.0,31.4,24.2,17.0,-000.3,0019.49,0013.36,0012.81
2023-03-09 10:32:00,,0822.4,5.01,0.00,22.6,20.6,00.0,31.4,24.2,17.0,-000.1,0019.52,0013.31,0012.77
2023-03-09 10:33:00,,0822.4,5.00,0.00,22.5,20.6,00.0,31.3,24.1,17.1,-000.1,0019.55,0013.28,0012.73
2023-03-09 10:34:00,,0822.4,4.99,0.00,22.5,20.5,00.0,31.3,24.1,17.1,-000.2,0019.51,0013.24,0012.67
2023-03-09 10:35:00,,0822.3,5.00,0.00,22.5,20.4,00.0,31.3,24.0,17.1,-000.2,0019.47,0013.16,0012.58
2023-03-09 10:36:00,,0822.3,5.01,0.00,22.4,20.4,00.0,31.3,24.0,17.2,0000.0,0019.32,0013.07,0012.49
2023-03-09 10:37:00,,0822.3,5.01,0.00,22.4,20.3,00.0,31.3,24.0,17.2,0000.1,0019.24,0013.01,0012.43
2023-03-09 10:38:00,,0822.4,5.01,0.00,22.4,20.3,00.0,31.2,24.0,17.2,0000.1,0019.09,0012.92,0012.36
2023-03-09 10:39:00,,0822.4,5.00,0.00,22.4,20.9,00.0,31.2,24.0,17.2,0000.2,0018.98,0012.85,0012.28
2023-03-09 10:40:00,,0822.4,4.96,0.00,22.5,22.0,00.0,31.2,24.3,17.1,0000.4,0018.91,0012.79,0012.19
2023-03-09 10:41:00,,0822.4,5.00,0.00,22.6,22.9,00.0,31.2,24.6,17.1,0000.6,0018.75,0012.69,0012.11
2023-03-09 10:42:00,,0822.4,5.00,0.00,22.7,22.8,00.0,31.2,24.6,17.0,0000.5,0018.54,0012.57,0012.01
2023-03-09 10:43:00,,0822.4,5.02,0.00,22.7,22.3,00.0,31.3,24.5,17.0,0000.3,0018.30,0012.50,0011.94
2023-03-09 10:44:00,,0822.5,5.00,0.00,22.6,21.9,00.0,31.3,24.4,17.0,0000.3,0018.10,0012.43,0011.89
2023-03-09 10:45:00,,0822.5,5.01,0.00,22.6,21.5,00.0,31.3,24.3,17.0,0000.3,0017.98,0012.36,0011.84
2023-03-09 10:46:00,,0822.4,5.00,0.00,22.6,21.2,00.0,31.3,24.2,17.0,0000.4,0017.96,0012.34,0011.83
2023-03-09 10:47:00,,0822.4,5.00,0.00,22.5,20.9,00.0,31.3,24.1,17.1,0000.2,0018.36,0012.33,0011.84
2023-03-09 10:48:00,,0822.5,5.00,0.00,22.5,20.8,00.0,31.3,24.1,17.1,0000.2,0018.43,0012.31,0011.83
2023-03-09 10:49:00,,0822.5,5.01,0.00,22.5,20.7,00.0,31.2,24.0,17.1,0000.3,0018.49,0012.34,0011.86
2023-03-09 10:50:00,,0822.4,5.02,0.00,22.4,20.6,00.0,31.2,24.0,17.2,0000.3,0018.52,0012.36,0011.88
2023-03-09 10:51:00,,0822.4,4.98,0.00,22.4,20.6,00.0,31.2,24.0,17.2,0000.2,0018.58,0012.40,0011.92
2023-03-09 10:52:00,,0822.4,4.99,0.00,22.4,20.5,00.0,31.2,24.0,17.2,0000.1,0018.77,0012.47,0011.96
2023-03-09 10:53:00,,0822.5,5.00,0.00,22.3,20.5,00.0,31.2,24.0,17.3,0000.1,0018.79,0012.49,0011.97
2023-03-09 10:54:00,,0822.6,4.99,0.00,22.3,20.5,00.0,31.2,24.0,17.5,0000.2,0018.79,0012.51,0011.99
2023-03-09 10:55:00,,0822.6,5.01,0.00,22.3,20.5,00.0,31.2,24.0,18.6,0000.1,0018.90,0012.53,0012.00
2023-03-09 10:56:00,,0822.6,5.01,0.00,22.3,20.5,00.0,31.1,24.0,17.9,0000.1,0019.02,0012.59,0012.04
2023-03-09 10:57:00,,0822.7,5.00,0.00,22.3,20.8,00.0,31.1,24.0,17.5,0000.0,0019.03,0012.60,0012.04
2023-03-09 10:58:00,,0822.7,4.98,0.00,22.4,22.0,00.0,31.1,24.3,17.4,0000.2,0018.70,0012.60,0012.04
2023-03-09 10:59:00,,0822.6,5.03,0.00,22.5,23.0,00.0,31.1,24.5,17.2,0000.2,0018.59,0012.62,0012.03
